RYR12ZY LIRN-LMML

Flight info

Callsign RYR12ZY
Flight time 0h 51m
Altitude 33000
Route AGNIS DCT OBAXU DCT NELDA N982
Aircraft B739/M-SDE2E3FGHIRWXY/LB1

Departure

Time 2026-05-04 10:21
Airport Naples International Airport (LIRN)

Arrival

Time 2026-05-04 11:12
Airport Malta International Airport (LMML)
Time Latitude Longitude Altitude Speed Heading
2026-05-04 10:05 40.87843 14.28084 294 ft 0 kts 140°
2026-05-04 10:12 40.87844 14.28083 294 ft 1 kts 140°
2026-05-04 10:12 40.87856 14.28070 299 ft 3 kts 136°
2026-05-04 10:13 40.87870 14.28051 296 ft 3 kts 127°
2026-05-04 10:13 40.87880 14.28029 296 ft 3 kts 110°
2026-05-04 10:13 40.87884 14.28005 299 ft 3 kts 78°
2026-05-04 10:13 40.87880 14.27991 296 ft 1 kts 51°
2026-05-04 10:14 40.87880 14.27990 296 ft 1 kts 51°
2026-05-04 10:16 40.87915 14.28047 296 ft 12 kts 51°
2026-05-04 10:16 40.87961 14.28166 291 ft 17 kts 93°
2026-05-04 10:16 40.87947 14.28320 288 ft 17 kts 97°
2026-05-04 10:16 40.87949 14.28465 289 ft 16 kts 56°
2026-05-04 10:17 40.88025 14.28570 283 ft 15 kts 51°
2026-05-04 10:17 40.88089 14.28681 281 ft 15 kts 53°
2026-05-04 10:19 40.88979 14.30223 239 ft 16 kts 54°
2026-05-04 10:19 40.89063 14.30240 234 ft 13 kts 332°
2026-05-04 10:19 40.89117 14.30180 234 ft 6 kts 279°
2026-05-04 10:19 40.89107 14.30144 239 ft 0 kts 239°
2026-05-04 10:20 40.89091 14.30109 237 ft 26 kts 238°
2026-05-04 10:20 40.88857 14.29615 252 ft 100 kts 238°
2026-05-04 10:20 40.88369 14.28593 279 ft 160 kts 237°
2026-05-04 10:20 40.87716 14.27253 732 ft 177 kts 234°
2026-05-04 10:21 40.86949 14.25947 1572 ft 180 kts 222°
2026-05-04 10:21 40.85748 14.25326 2127 ft 197 kts 178°
2026-05-04 10:21 40.84423 14.25679 2911 ft 194 kts 168°
2026-05-04 10:21 40.83100 14.26084 3554 ft 196 kts 167°
2026-05-04 10:22 40.80238 14.27395 4018 ft 239 kts 159°
2026-05-04 10:22 40.78638 14.28198 4394 ft 256 kts 159°
2026-05-04 10:22 40.76912 14.29060 4880 ft 270 kts 159°
2026-05-04 10:23 40.75151 14.29934 5669 ft 272 kts 159°
2026-05-04 10:23 40.73366 14.30815 6428 ft 275 kts 159°
2026-05-04 10:25 40.60039 14.37297 10742 ft 328 kts 160°
2026-05-04 10:25 40.57827 14.38367 10928 ft 349 kts 160°
2026-05-04 10:25 40.55511 14.39485 11358 ft 359 kts 160°
2026-05-04 10:25 40.53157 14.40620 12022 ft 362 kts 160°
2026-05-04 10:26 40.50812 14.41719 12713 ft 364 kts 163°
2026-05-04 10:26 40.48280 14.42307 13351 ft 367 kts 178°
2026-05-04 10:26 40.45710 14.42344 13985 ft 371 kts 180°
2026-05-04 10:26 40.43147 14.42320 14531 ft 375 kts 181°
2026-05-04 10:27 40.40527 14.42287 15109 ft 378 kts 181°
2026-05-04 10:27 40.37849 14.42258 15700 ft 381 kts 180°
2026-05-04 10:27 40.35222 14.42239 16263 ft 384 kts 180°
2026-05-04 10:27 40.32503 14.42228 16834 ft 387 kts 180°
2026-05-04 10:28 40.29830 14.42222 17376 ft 391 kts 180°
2026-05-04 10:28 40.27099 14.42221 17918 ft 394 kts 180°
2026-05-04 10:28 40.24346 14.42222 18472 ft 397 kts 180°
2026-05-04 10:28 40.21570 14.42225 18942 ft 401 kts 180°
2026-05-04 10:29 40.18770 14.42228 19378 ft 405 kts 181°
2026-05-04 10:29 40.15941 14.42232 19830 ft 408 kts 181°
2026-05-04 10:29 40.13087 14.42235 20302 ft 412 kts 181°
2026-05-04 10:29 40.10213 14.42239 20746 ft 415 kts 181°
2026-05-04 10:30 40.07315 14.42243 21196 ft 418 kts 181°
2026-05-04 10:30 40.04390 14.42247 21629 ft 422 kts 181°
2026-05-04 10:30 40.01446 14.42250 22081 ft 425 kts 181°
2026-05-04 10:30 39.98474 14.42254 22521 ft 428 kts 182°
2026-05-04 10:31 39.95485 14.42258 22941 ft 432 kts 182°
2026-05-04 10:31 39.92470 14.42261 23357 ft 435 kts 182°
2026-05-04 10:32 39.73942 14.42285 25557 ft 452 kts 182°
2026-05-04 10:33 39.70787 14.42289 25899 ft 455 kts 182°
2026-05-04 10:33 39.67613 14.42293 26226 ft 458 kts 182°
2026-05-04 10:33 39.64421 14.42297 26562 ft 460 kts 182°
2026-05-04 10:33 39.61207 14.42301 26885 ft 463 kts 183°
2026-05-04 10:34 39.57978 14.42305 27204 ft 466 kts 183°
2026-05-04 10:34 39.54725 14.42309 27504 ft 469 kts 183°
2026-05-04 10:34 39.51453 14.42313 27815 ft 471 kts 183°
2026-05-04 10:34 39.48168 14.42317 28120 ft 474 kts 183°
2026-05-04 10:35 39.44858 14.42321 28420 ft 477 kts 183°
2026-05-04 10:35 39.41527 14.42325 28708 ft 479 kts 183°
2026-05-04 10:35 39.38191 14.42330 29088 ft 480 kts 183°
2026-05-04 10:35 39.34859 14.42335 29562 ft 478 kts 184°
2026-05-04 10:36 39.31543 14.42342 30142 ft 472 kts 184°
2026-05-04 10:36 39.28266 14.42348 30172 ft 469 kts 184°
2026-05-04 10:36 39.21848 14.42360 30196 ft 457 kts 184°
2026-05-04 10:37 39.15496 14.42365 30204 ft 456 kts 184°
2026-05-04 10:37 39.09193 14.42370 30207 ft 456 kts 184°
2026-05-04 10:39 38.87089 14.40698 30195 ft 456 kts 190°
2026-05-04 10:40 38.80767 14.39967 30203 ft 457 kts 189°
2026-05-04 10:40 38.74418 14.39271 30195 ft 458 kts 189°
2026-05-04 10:41 38.68065 14.38586 30201 ft 459 kts 189°
2026-05-04 10:41 38.61702 14.37903 30195 ft 459 kts 189°
2026-05-04 10:42 38.55329 14.37218 30195 ft 459 kts 189°
2026-05-04 10:42 38.48959 14.36534 30193 ft 459 kts 189°
2026-05-04 10:43 38.43663 14.35966 30196 ft 459 kts 189°
2026-05-04 10:45 38.18262 14.33253 30195 ft 456 kts 189°
2026-05-04 10:45 38.11936 14.32580 30188 ft 456 kts 190°
2026-05-04 10:46 38.05619 14.31910 30195 ft 455 kts 190°
2026-05-04 10:46 37.99307 14.31240 30200 ft 455 kts 190°
2026-05-04 10:47 37.92986 14.30571 30190 ft 456 kts 190°
2026-05-04 10:47 37.86679 14.29907 30166 ft 448 kts 190°
2026-05-04 10:47 37.83623 14.29592 30171 ft 433 kts 190°
2026-05-04 10:49 37.63436 14.27465 28406 ft 408 kts 190°
2026-05-04 10:49 37.60619 14.27170 27990 ft 404 kts 189°
2026-05-04 10:50 37.57827 14.26878 27585 ft 401 kts 189°
2026-05-04 10:51 37.38784 14.24887 24845 ft 384 kts 188°
2026-05-04 10:52 37.36128 14.24610 24470 ft 382 kts 188°
2026-05-04 10:52 37.33484 14.24335 24101 ft 381 kts 188°
2026-05-04 10:52 37.30846 14.24061 23680 ft 379 kts 188°
2026-05-04 10:54 37.12944 14.22204 21038 ft 360 kts 188°
2026-05-04 10:54 37.10456 14.21947 20687 ft 357 kts 188°
2026-05-04 10:56 36.93515 14.20198 18257 ft 342 kts 187°
2026-05-04 10:56 36.91151 14.19955 17885 ft 340 kts 187°
2026-05-04 10:56 36.88806 14.19714 17533 ft 337 kts 187°
2026-05-04 10:57 36.86479 14.19475 17192 ft 334 kts 187°
2026-05-04 10:57 36.84171 14.19238 16855 ft 331 kts 187°
2026-05-04 10:57 36.81884 14.19003 16532 ft 329 kts 187°
2026-05-04 10:57 36.79611 14.18770 16210 ft 326 kts 187°
2026-05-04 10:58 36.77360 14.18539 15888 ft 324 kts 187°
2026-05-04 10:58 36.75123 14.18309 15569 ft 321 kts 187°
2026-05-04 10:58 36.72905 14.18082 15252 ft 319 kts 187°
2026-05-04 10:58 36.70698 14.17856 14946 ft 317 kts 187°
2026-05-04 10:59 36.68507 14.17632 14635 ft 315 kts 187°
2026-05-04 10:59 36.66361 14.17412 14326 ft 313 kts 187°
2026-05-04 10:59 36.64192 14.17191 14021 ft 311 kts 186°
2026-05-04 10:59 36.62038 14.16971 13677 ft 310 kts 186°
2026-05-04 11:00 36.59899 14.16752 13351 ft 308 kts 186°
2026-05-04 11:01 36.45382 14.15273 11272 ft 290 kts 185°
2026-05-04 11:02 36.43376 14.15069 10983 ft 288 kts 185°
2026-05-04 11:02 36.41387 14.14867 10706 ft 286 kts 185°
2026-05-04 11:05 36.14286 14.12653 7158 ft 253 kts 153°
2026-05-04 11:06 36.12865 14.13846 7138 ft 247 kts 136°
2026-05-04 11:06 36.11585 14.15391 6856 ft 264 kts 133°
2026-05-04 11:06 36.10307 14.17040 6515 ft 267 kts 132°
2026-05-04 11:06 36.09024 14.18739 6033 ft 272 kts 132°
2026-05-04 11:08 35.99930 14.30125 4187 ft 247 kts 136°
2026-05-04 11:10 35.91827 14.40199 1974 ft 209 kts 137°
2026-05-04 11:12 35.86079 14.47337 404 ft 140 kts 137°
2026-05-04 11:12 35.85388 14.48198 285 ft 141 kts 139°
2026-05-04 11:12 35.84764 14.48966 258 ft 107 kts 135°
2026-05-04 11:12 35.84520 14.49281 258 ft 31 kts 124°
2026-05-04 11:13 35.84459 14.49442 258 ft 6 kts 109°
2026-05-04 11:13 35.84446 14.49488 258 ft 6 kts 109°
2026-05-04 11:13 35.84448 14.49536 258 ft 6 kts 68°
2026-05-04 11:13 35.84479 14.49569 258 ft 7 kts 19°
2026-05-04 11:14 35.84496 14.49571 258 ft 8 kts 358°
2026-05-04 11:16 35.84860 14.49456 258 ft 0 kts 359°